Regional Weather Roundup
Issued by NWS

Home | Current Version | Previous Version | Graphics & Text | Print | Product List | Glossary On
Versions: 1 2 3 4 5 6 7 8 9 10 11 12 13 14 15 16 17 18 19 20 21 22 23 24 25 26 27 28 29 30 31 32 33 34 35 36 37 38 39 40 41 42 43 44 45 46 47 48 49 50
000
ASUS43 KMKX 260100
RWRWI

WISCONSIN REGIONAL WEATHER ROUNDUP
NATIONAL WEATHER SERVICE MILWAUKEE/SULLIVAN WI
800 PM CDT WED MAY 25 2016

NOTE: "FAIR" INDICATES FEW OR NO CLOUDS BELOW 12,000 FEET WITH NO
SIGNIFICANT WEATHER AND/OR OBSTRUCTIONS TO VISIBILITY.

WIZ001-002-006>008-014>016-023>028-260200-
NORTHWEST WISCONSIN

CITY           SKY/WX    TMP DP  RH WIND       PRES   REMARKS
SUPERIOR ARPT  CLOUDY    43  43  99 NE13G20   29.93S
ASHLAND        HVY RAIN  52  52 100 N8        29.93S FOG
HAYWARD        RAIN      53  51  93 NE9       29.88F FOG
SIREN          CLOUDY    60  57  91 NE7       29.86R
CUMBERLAND     MOCLDY    63  61  94 NE7       29.84F
RICE LAKE      MOCLDY    63  61  92 N8        29.86S
CHETEK         PTCLDY    64  63  99 CALM      29.84S
LADYSMITH      RAIN      64  63  94 NE9G17    29.84F
EAU CLAIRE     CLOUDY    67  64  90 CALM      29.83R
MENOMONIE      CLOUDY    68  67  98 CALM      29.83R
NEW RICHMOND   CLOUDY    69  61  74 CALM      29.83R
OSCEOLA        CLOUDY    68  64  86 NE9       29.85R
$$

WIZ003>005-009-010-017-018-260200-
NORTH CENTRAL WISCONSIN

CITY           SKY/WX    TMP DP  RH WIND       PRES   REMARKS
MANITOWISH WTR NOT AVBL
ARBOR VITAE    RAIN      63  61  93 E6        29.88F
WOODRUFF       RAIN      63  61  93 E6        29.88F
RHINELANDER    RAIN      62  60  93 SE9       29.89F FOG
EAGLE RIVER    HVY RAIN  63  58  83 SE8       29.92R
LAND O LAKES   LGT RAIN  64  61  90 E5        29.93R
PHILLIPS       HVY RAIN  63  63  98 E5G16     29.85F
TOMAHAWK       LGT RAIN  61  59  94 E9        29.86F
MEDFORD        LGT RAIN  62  62 100 SE6       29.86R
MERRILL        LGT RAIN  63  63 100 E5        29.87S
$$

WIZ029-030-035-036-043>047-260200-
CENTRAL WISCONSIN

CITY           SKY/WX    TMP DP  RH WIND       PRES   REMARKS
WAUSAU         LGT RAIN  64  32  30 SE7       29.85F
MOSINEE        LGT RAIN  63  63 100 E8        29.87R
MARSHFIELD     LGT RAIN  66  62  87 W9G17     29.86R
STEVENS POINT  RAIN      62  60  94 SE12G20   29.88R
WAUPACA        LGT RAIN  64  64  97 E17G23    29.87F
WAUTOMA        CLOUDY    64  63  96 E8        29.87S
WISC RAPIDS    CLOUDY    65  61  87 SE9       29.88S
CAMP DOUGLAS   PTCLDY    66  66 100 E10       29.85S
$$

WIZ011>013-019>022-031-037>040-048>050-260200-
NORTHEAST WISCONSIN

CITY           SKY/WX    TMP DP  RH WIND       PRES   REMARKS
ANTIGO         CLOUDY    60  59  97 E17G24    29.88R
SHAWANO        CLOUDY    62  59  89 E7        29.92F
OCONTO         CLOUDY   N/A N/A N/A NE5       29.92F
STURGEON BAY   NOT AVBL
GREEN BAY      CLOUDY    61  58  90 NE8       29.92R
MANITOWOC      NOT AVBL
APPLETON       TSTM      59  59 100 NE10      29.89F
CLINTONVILLE   RAIN      61  59  94 E10       29.88F
OSHKOSH        CLOUDY    61  57  87 NE8       29.89F
$$

WIZ032>034-041-042-053>061-260200-
SOUTHWEST WISCONSIN

CITY           SKY/WX    TMP DP  RH WIND       PRES   REMARKS
LA CROSSE      CLEAR     76  64  66 S5        29.82R
SPARTA         MOCLDY    75  67  76 CALM      29.84R
VIROQUA        CLEAR     76  61  59 SW8       29.85R
BOSCOBEL       MOCLDY    77  64  64 CALM      29.83R
PRAIRIE DU CHI PTCLDY    81  56  43 W7        29.81S HX  81
PLATTEVILLE    PTCLDY    80  59  49 SW14      29.86R HX  80
$$

WIZ056-057-062-063-064-067-068-260200-
SOUTH CENTRAL WISCONSIN

CITY           SKY/WX    TMP DP  RH WIND       PRES   REMARKS
REEDSBURG      MOCLDY    72  68  87 CALM      29.83R
BARABOO/DELLS  MOCLDY    71  65  81 NE7       29.85R
LONE ROCK      NOT AVBL
MINERAL POINT  PTCLDY    79  59  50 SW9       29.86R HX  80
MADISON        MOCLDY    77  63  61 S15       29.84R
MIDDLETON      CLOUDY    81  61  51 SW6       29.84R HX  82
WATERTOWN      MOCLDY    69  69 100 E8        29.88R
MONROE         MOCLDY    72  64  78 SE14      29.86R
JANESVILLE     MOCLDY    70  66  88 SE12      29.87F
$$

WIZ051-052-058>065-066-070>072-260200-
SOUTHEAST WISCONSIN

CITY           SKY/WX    TMP DP  RH WIND       PRES   REMARKS
MILWAUKEE      LGT RAIN  54  52  93 NE5       29.93R FOG
WAUKESHA       CLOUDY    61  57  88 E7        29.92R FOG
MILWAUKEE/TIMM NOT AVBL
RACINE         LGT RAIN  56  53  90 NE3       29.94R FOG
BURLINGTON     CLOUDY    68  64  85 SE6       29.91R
KENOSHA        LGT RAIN  66  63  90 SE7       29.91R
FOND DU LAC    LGT RAIN  66  61  84 E3        29.89R
SHEBOYGAN      LGT RAIN  52  50  93 NE8       29.91F
WEST BEND      CLOUDY    61  57  88 CALM      29.91R
JUNEAU         LGT RAIN  65  63  91 E13       29.88S
$$

LSZ147-162-260200-
LAKE SUPERIOR

STATION/POSITION TIME  TEMP    WIND        PRES    WAVE
                       AIR SEA DIR/SP/G            HT/PER
                 (UTC) (F)     (DEG/KT/KT) (MB)    (FT/S)
W MID LAKE BUOY  2350   41 38   50/ 16/ 19 1014.1F   3/ 5
DEVILS ISLAND    0000   43     300/  6/  9 1015.2R
SAXON HARBOR     0000   47     250/  3/  5 1013.5R
$$

LMZ867-665-643>646-260200-
LAKE MICHIGAN

STATION/POSITION TIME  TEMP    WIND        PRES    WAVE
                       AIR SEA DIR/SP/G            HT/PER
                 (UTC) (F)     (DEG/KT/KT) (MB)    (FT/S)
CHAMBERS ISLAND  0040   58      20/  3/  4 1013.9F
N MID LAKE BUOY  2350   49 45   70/  6/  6 1014.4S   1
NORTHPORT PIER   0000   54     130/  4/  6 1014.6F
SISTER BAY       0019   59     130/  7/  9   N/A
ALGOMA LAKESHORE 0017           40/  8/ 11   N/A
KEWAUNEE LAKESHO 0000           20/ 11/ 14 1013.3F
SHEBOYGAN LAKESH 0000   49     350/  4/  5 1014.2S
PORT WASHINGTON  0000   54      50/  6/ 10 1013.9
S MID LAKE BUOY  2350   57 53   90/ 10/ 10 1011.9F   0
KENOSHA   LAKESH 0000   57     200/  7/ 11 1012.5F
$$

TC  - TEMPERATURE IN CELSIUS
VSB - VISIBILITY IN STATUTE MILES
WCI - WIND CHILL INDEX
HX  - HEAT INDEX





USA.gov is the U.S. government's official web portal to all federal, state and local government web resources and services.